Location: Tamazert
(32.6352°N, 5.2072°W)
Time: 06:07:04
(UTC+00:00)

Vanguard 2 - Pass Details

Date: 06 October 2022
Orbit: 553 x 2933 km, 32.9° (Epoch: 26 November)

Event Time Altitude Azimuth Distance (km) Brightness Sun altitude
Rises 18:00:30 0° 285° (WNW) 6,020 13.7 -1.1°
Reaches altitude 10° 18:04:14 10° 281° (W) 5,244 13.4 -1.9°
Maximum altitude 18:19:56 53° 211° (SSW) 3,383 11.0 -5.2°
Drops below altitude 10° 18:36:19 10° 141° (SE) 5,426 11.5 -8.6°
Sets 18:40:18 0° 136° (SE) 6,231 11.7 -9.5°
